Tracking 18972 objects as of 21-Mar-2018
HD Live streaming from Space Station
objects crossing your sky now


Track BEESAT now!
10-day predictions
BEESAT is classified as:

NORAD ID: 35933
Int'l Code: 2009-051C
Perigee: 707.6 km
Apogee: 717.3 km
Inclination: 98.5 °
Period: 98.9 minutes
Semi major axis: 7083 km
RCS: 0.033 m2 (small)
Launch date: September 23, 2009
Source: Germany (GER)
Launch site: SRIHARIKOTA (SRI)
Uplink (MHz):
Downlink (MHz): 436.000
Beacon (MHz): 436.000
Mode: 9600/4800bps GMSK
Call sign: DP0BEE
Status: Active

BEESAT is a a cubesat satellite built by student teams to test new attitude control systems.
Your satellite tracking list
Your tracking list is empty

NASA's NSSDC Master Catalog

Two Line Element Set (TLE):
1 35933U 09051C   18079.96586802  .00000134  00000-0  41125-4 0  9992
2 35933  98.5350 230.5629 0006866 128.4921 231.6893 14.56239581450707
Source of the keplerian elements: Caltech